EW2310 Weather Reports


Display with metric or nautical units.
time (UTC)temp
F
wind
direction
speed
MPH
gust
MPH
rain 1hr
in
rain 24hr
in
rain mn
in
humidity
%
barometer
mb
20180120145025 58 298 1.0 4.0 0.00 0.01 0.00 65 1011.0
20180120144525 58 284 0.0 7.0 0.00 0.01 0.00 66 1010.9
20180120144025 58 261 1.0 7.0 0.00 0.01 0.00 66 1010.9
20180120143525 58 327 5.0 8.0 0.00 0.01 0.00 66 1010.9
20180120143025 58 221 2.0 10.0 0.00 0.01 0.00 66 1010.9
20180120142525 59 313 5.0 7.0 0.00 0.01 0.00 67 1010.9
20180120142120 59 264 4.0 8.0 0.00 0.01 0.00 66 1010.9
20180120141048 59 225 1.0 6.0 0.00 0.01 0.00 67 1010.9
20180120140051 59 315 1.0 8.0 0.00 0.01 0.00 66 1010.9
20180120135546 59 321 3.0 7.0 0.00 0.01 0.00 65 1010.9
20180120135123 59 273 2.0 6.0 0.00 0.01 0.00 62 1010.9
20180120134545 59 294 2.0 6.0 0.00 0.01 0.00 60 1010.8
20180120134049 59 329 1.0 8.0 0.00 0.01 0.00 59 1010.9
20180120133541 59 267 1.0 5.0 0.00 0.01 0.00 61 1010.8
20180120133041 59 273 3.0 5.0 0.00 0.01 0.00 62 1010.8
20180120132541 58 291 0.0 10.0 0.00 0.01 0.00 60 1010.9
20180120132041 58 285 4.0 9.0 0.00 0.01 0.00 61 1011.0
20180120131541 58 310 2.0 10.0 0.00 0.01 0.00 61 1010.9
20180120131041 58 329 9.0 9.0 0.00 0.01 0.00 61 1010.9
20180120130541 58 335 10.0 11.0 0.00 0.01 0.00 64 1010.9
20180120130041 58 5 4.0 6.0 0.00 0.01 0.00 64 1011.1
20180120125541 58 306 4.0 10.0 0.00 0.01 0.00 64 1011.0
20180120125041 58 300 2.0 7.0 0.00 0.01 0.00 67 1011.1
20180120124541 58 270 2.0 11.0 0.00 0.01 0.00 67 1011.1
20180120124041 58 307 2.0 8.0 0.00 0.02 0.00 69 1011.2
20180120123542 58 234 1.0 9.0 0.00 0.02 0.00 68 1011.2
20180120123041 58 319 3.0 10.0 0.00 0.02 0.00 68 1011.2
20180120122540 58 274 3.0 10.0 0.00 0.02 0.00 69 1011.2
20180120122040 58 301 4.0 9.0 0.00 0.02 0.00 70 1011.3
20180120121540 58 306 7.0 11.0 0.00 0.02 0.00 70 1011.3
20180120121041 58 328 4.0 6.0 0.00 0.02 0.00 72 1011.3
20180120120540 57 323 4.0 8.0 0.00 0.02 0.00 71 1011.2
20180120120041 57 273 4.0 11.0 0.00 0.02 0.00 71 1011.2
20180120115540 57 287 3.0 10.0 0.00 0.02 0.00 72 1011.3
20180120115041 58 268 3.0 9.0 0.00 0.02 0.00 72 1011.4
20180120114541 58 284 1.0 8.0 0.00 0.02 0.00 73 1011.5
20180120114041 58 304 1.0 8.0 0.00 0.02 0.00 73 1011.6
20180120113541 57 306 1.0 5.0 0.00 0.02 0.00 73 1011.6
20180120113043 57 260 2.0 8.0 0.00 0.02 0.00 73 1011.6
20180120112541 56 5 1.0 9.0 0.00 0.02 0.00 74 1011.7
20180120112051 56 342 5.0 13.0 0.00 0.02 0.00 73 1011.7
20180120111541 56 310 8.0 10.0 0.00 0.02 0.00 74 1011.8
20180120111041 56 302 2.0 9.0 0.00 0.02 0.00 75 1011.8
20180120110540 56 319 8.0 9.0 0.00 0.02 0.00 75 1011.9
20180120110040 56 336 1.0 9.0 0.00 0.02 0.00 75 1011.9
20180120105541 56 338 8.0 9.0 0.00 0.02 0.00 75 1012.0
20180120105041 56 9 4.0 8.0 0.00 0.02 0.00 76 1012.1
20180120104540 56 313 5.0 10.0 0.00 0.02 0.00 75 1012.1
20180120104040 56 314 5.0 9.0 0.00 0.02 0.00 76 1012.2
20180120103541 56 321 5.0 9.0 0.00 0.02 0.00 76 1012.2
20180120103041 55 229 0.0 8.0 0.00 0.02 0.00 77 1012.3
20180120102542 55 336 8.0 11.0 0.00 0.02 0.00 76 1012.3
20180120102040 55 320 10.0 11.0 0.00 0.02 0.00 77 1012.3
20180120101547 55 318 11.0 11.0 0.00 0.02 0.00 77 1012.4
20180120101041 55 327 4.0 10.0 0.00 0.02 0.00 79 1012.4
20180120100544 55 290 1.0 7.0 0.00 0.02 0.00 81 1012.5
20180120100040 55 321 4.0 8.0 0.00 0.02 0.00 82 1012.6
20180120095546 55 325 6.0 9.0 0.00 0.02 0.00 82 1012.5
20180120095047 54 298 1.0 7.0 0.00 0.02 0.00 84 1012.5
20180120094540 54 286 2.0 6.0 0.00 0.02 0.00 85 1012.6
20180120094041 54 304 7.0 7.0 0.00 0.02 0.00 86 1012.5
20180120093542 53 331 2.0 8.0 0.00 0.02 0.00 86 1012.4
20180120093046 53 0 6.0 8.0 0.00 0.02 0.00 86 1012.4
20180120092540 53 328 5.0 7.0 0.00 0.02 0.00 87 1012.4
20180120092040 53 342 3.0 8.0 0.00 0.02 0.00 87 1012.3
20180120091551 53 325 6.0 8.0 0.00 0.02 0.00 88 1012.4
20180120091040 52 334 2.0 6.0 0.00 0.02 0.00 89 1012.2
20180120090545 52 305 5.0 6.0 0.00 0.03 0.00 89 1012.2
20180120090046 52 0 2.0 5.0 0.00 0.03 0.00 89 1012.2
20180120085541 51 333 3.0 8.0 0.00 0.03 0.00 89 1012.2
20180120085040 51 340 2.0 7.0 0.00 0.03 0.00 89 1012.2
20180120084540 51 331 8.0 9.0 0.00 0.03 0.00 89 1012.2
20180120084040 51 326 3.0 6.0 0.00 0.03 0.00 90 1012.2
20180120083540 51 328 3.0 5.0 0.00 0.03 0.00 90 1012.3
20180120083040 50 316 4.0 9.0 0.00 0.03 0.00 90 1012.2
20180120082540 50 332 6.0 9.0 0.00 0.03 0.00 90 1012.3
20180120082040 50 320 4.0 8.0 0.00 0.03 0.00 90 1012.2
20180120081540 50 338 3.0 8.0 0.00 0.03 0.00 90 1012.1
20180120081040 49 317 1.0 9.0 0.00 0.03 0.00 91 1012.0
20180120080540 49 334 5.0 6.0 0.00 0.03 0.00 91 1011.9
20180120080040 49 309 4.0 7.0 0.00 0.03 0.00 91 1012.0
20180120075540 49 305 4.0 9.0 0.00 0.03 0.00 91 1011.9
20180120075040 49 298 3.0 8.0 0.00 0.03 0.00 91 1011.8
20180120074540 49 320 4.0 9.0 0.00 0.03 0.00 91 1011.6
20180120074040 49 319 4.0 6.0 0.00 0.03 0.00 91 1011.6
20180120073540 48 314 2.0 4.0 0.00 0.03 0.00 91 1011.5
20180120073040 48 300 2.0 6.0 0.00 0.03 0.00 92 1011.5
20180120072540 48 334 0.0 5.0 0.00 0.03 0.00 91 1011.5
20180120072040 48 328 4.0 6.0 0.00 0.03 0.00 92 1011.4
20180120071540 48 315 2.0 8.0 0.00 0.03 0.00 92 1011.3
20180120071040 48 318 4.0 6.0 0.00 0.03 0.00 92 1011.4
20180120070540 48 316 3.0 6.0 0.00 0.03 0.00 92 1011.3
20180120070040 48 319 0.0 5.0 0.00 0.03 0.00 92 1011.4
20180120065540 47 319 3.0 8.0 0.00 0.03 0.00 92 1011.3
20180120065040 47 327 4.0 9.0 0.00 0.03 0.00 92 1011.2
20180120064540 47 320 4.0 6.0 0.00 0.03 0.00 91 1011.2
20180120064040 47 316 6.0 6.0 0.00 0.03 0.00 92 1011.2
20180120063540 47 314 0.0 6.0 0.00 0.03 0.00 91 1011.1
20180120063040 47 312 3.0 8.0 0.00 0.03 0.00 92 1011.1
20180120062540 48 314 4.0 7.0 0.00 0.03 0.00 91 1011.1
20180120062041 48 340 6.0 6.0 0.00 0.03 0.00 92 1011.0
20180120061540 48 301 1.0 3.0 0.00 0.03 0.00 91 1010.9
20180120061040 48 347 3.0 8.0 0.00 0.03 0.00 91 1010.9
20180120060540 48 315 0.0 6.0 0.00 0.03 0.00 91 1010.8
20180120060040 48 318 1.0 2.0 0.00 0.03 0.00 91 1010.7
20180120055540 48 313 0.0 1.0 0.00 0.03 0.00 91 1010.6
20180120055040 48 313 0.0 0.0 0.00 0.03 0.00 91 1010.5
20180120054540 48 312 0.0 0.0 0.00 0.03 0.00 90 1010.4
20180120054040 48 312 0.0 0.0 0.00 0.03 0.00 91 1010.4
20180120053540 48 313 0.0 3.0 0.00 0.03 0.00 90 1010.5
20180120053040 48 311 1.0 5.0 0.00 0.03 0.00 90 1010.4
20180120052540 49 311 5.0 5.0 0.00 0.03 0.00 90 1010.4
20180120052040 49 319 3.0 4.0 0.00 0.03 0.00 90 1010.3
20180120051540 49 320 2.0 4.0 0.00 0.03 0.00 90 1010.2
20180120051040 50 320 3.0 4.0 0.00 0.03 0.00 90 1010.3
20180120050540 50 322 0.0 5.0 0.00 0.03 0.00 91 1010.1
20180120050040 50 321 2.0 4.0 0.00 0.03 0.00 91 1010.1
20180120045540 49 314 0.0 5.0 0.00 0.03 0.00 91 1010.1
20180120045040 49 316 0.0 1.0 0.00 0.03 0.00 91 1010.1
20180120044539 49 312 0.0 0.0 0.00 0.03 0.00 91 1010.0
20180120044040 49 319 0.0 0.0 0.00 0.03 0.00 91 1009.9
20180120043539 50 322 0.0 1.0 0.00 0.03 0.00 91 1010.0
20180120043040 50 338 0.0 1.0 0.00 0.03 0.00 92 1010.0
20180120042539 49 340 0.0 0.0 0.00 0.03 0.00 92 1009.9
20180120042040 49 355 0.0 3.0 0.00 0.03 0.00 92 1009.9
20180120041540 49 355 3.0 3.0 0.00 0.03 0.00 92 1009.9
20180120041039 49 355 0.0 0.0 0.00 0.03 0.00 92 1009.8
20180120040540 49 355 0.0 0.0 0.00 0.03 0.00 92 1009.7
20180120040039 49 355 0.0 1.0 0.00 0.03 0.00 93 1009.7
20180120035539 49 355 1.0 3.0 0.00 0.03 0.00 92 1009.8
20180120035039 49 355 3.0 5.0 0.00 0.03 0.00 92 1009.8
20180120034539 48 0 3.0 4.0 0.00 0.03 0.00 92 1009.8
20180120034039 48 319 2.0 6.0 0.00 0.03 0.00 92 1009.8
20180120033540 49 323 5.0 6.0 0.00 0.03 0.00 92 1009.8
20180120033040 49 315 3.0 6.0 0.00 0.03 0.00 92 1009.7
20180120032539 49 331 4.0 4.0 0.00 0.03 0.00 92 1009.8
20180120032039 49 34 0.0 0.0 0.00 0.03 0.00 92 1009.7
20180120031539 49 34 0.0 2.0 0.00 0.03 0.00 92 1009.8
20180120031039 49 34 2.0 4.0 0.00 0.03 0.00 92 1009.7
20180120030539 49 35 2.0 3.0 0.00 0.03 0.00 92 1009.8
20180120030039 49 48 2.0 3.0 0.00 0.03 0.00 92 1009.8
20180120025539 49 49 3.0 6.0 0.00 0.03 0.00 92 1009.8
20180120025039 49 37 3.0 5.0 0.00 0.03 0.00 92 1009.9
20180120024539 49 17 4.0 7.0 0.00 0.03 0.00 92 1009.9
20180120024040 50 17 0.0 7.0 0.00 0.03 0.00 92 1010.0
20180120023539 50 355 4.0 6.0 0.00 0.03 0.00 92 1010.0
20180120023039 50 332 0.0 0.0 0.00 0.03 0.00 92 1010.1
20180120022539 50 317 0.0 6.0 0.00 0.03 0.00 92 1010.1
20180120022039 50 355 5.0 8.0 0.00 0.03 0.00 92 1010.1
20180120021539 51 331 0.0 2.0 0.00 0.03 0.00 92 1010.1
20180120021039 51 326 0.0 5.0 0.00 0.03 0.00 93 1010.2
20180120020539 51 321 1.0 5.0 0.00 0.03 0.00 93 1010.2
20180120020039 51 320 3.0 5.0 0.00 0.03 0.00 93 1010.2
20180120015539 51 325 2.0 6.0 0.00 0.03 0.00 93 1010.1
20180120015039 51 0 0.0 0.0 0.00 0.03 0.00 93 1010.1
20180120014539 51 63 0.0 0.0 0.00 0.03 0.00 93 1009.9
20180120014039 51 85 0.0 0.0 0.00 0.03 0.00 93 1009.8
20180120013539 51 88 0.0 0.0 0.00 0.03 0.00 93 1009.8
20180120013039 51 88 0.0 3.0 0.00 0.03 0.00 93 1009.8
20180120012539 51 114 0.0 2.0 0.00 0.03 0.00 93 1009.8
20180120012039 51 115 0.0 2.0 0.00 0.03 0.00 93 1009.7
20180120011539 51 115 2.0 3.0 0.00 0.03 0.00 93 1009.7
20180120011039 51 102 0.0 4.0 0.00 0.03 0.00 93 1009.7
20180120010539 51 160 0.0 3.0 0.00 0.03 0.00 93 1009.7
20180120010039 51 136 3.0 9.0 0.00 0.03 0.00 93 1009.6
20180120005539 51 118 3.0 8.0 0.00 0.03 0.00 93 1009.6
20180120005040 51 119 5.0 8.0 0.00 0.03 0.00 93 1009.6
20180120004539 51 138 7.0 9.0 0.00 0.03 0.00 93 1009.5
20180120004039 51 119 5.0 5.0 0.00 0.03 0.00 93 1009.6
20180120003539 51 122 1.0 4.0 0.00 0.03 0.00 93 1009.6
20180120003039 50 126 0.0 4.0 0.00 0.03 0.00 93 1009.6
20180120002539 50 91 0.0 0.0 0.00 0.03 0.00 92 1009.8
20180120002039 50 90 0.0 3.0 0.00 0.03 0.00 92 1009.8
20180120001539 50 102 3.0 4.0 0.00 0.03 0.00 92 1009.7
20180120001040 50 120 3.0 7.0 0.00 0.03 0.00 93 1009.8
20180120000539 50 119 4.0 4.0 0.00 0.03 0.00 93 1009.8
20180120000040 50 139 0.0 7.0 0.00 0.03 0.00 92 1009.8
20180119235539 51 134 3.0 9.0 0.00 0.03 0.00 92 1009.9
20180119235039 51 151 4.0 8.0 0.00 0.03 0.00 92 1009.9
20180119234539 51 131 3.0 7.0 0.00 0.03 0.00 92 1009.8
20180119234039 51 127 2.0 8.0 0.00 0.03 0.00 92 1009.8
20180119233539 51 136 5.0 9.0 0.00 0.03 0.00 92 1009.9
20180119233039 51 128 3.0 7.0 0.00 0.03 0.00 92 1010.0
20180119232539 51 108 3.0 8.0 0.00 0.03 0.00 92 1010.0
20180119232040 51 113 8.0 8.0 0.00 0.03 0.00 92 1010.0
20180119231539 51 116 8.0 9.0 0.00 0.03 0.00 92 1010.0
20180119231039 51 122 0.0 7.0 0.00 0.03 0.00 92 1010.0
20180119230539 51 128 5.0 7.0 0.00 0.03 0.00 92 1010.0
20180119230039 51 127 5.0 8.0 0.00 0.03 0.00 92 1010.0
20180119225539 51 144 5.0 9.0 0.00 0.03 0.00 92 1010.0
20180119225039 51 148 5.0 8.0 0.00 0.03 0.00 92 1010.0
20180119224540 51 134 2.0 9.0 0.00 0.03 0.00 92 1010.0
20180119224040 51 132 10.0 10.0 0.00 0.03 0.00 92 1010.0
20180119223539 51 119 7.0 9.0 0.00 0.03 0.00 92 1010.1
20180119223040 51 145 5.0 8.0 0.00 0.03 0.00 92 1010.3
20180119222544 51 108 4.0 8.0 0.00 0.03 0.00 92 1010.3
20180119222039 52 133 4.0 9.0 0.00 0.03 0.00 92 1010.2
20180119221548 52 117 7.0 8.0 0.00 0.03 0.00 92 1010.3
20180119221039 52 140 4.0 8.0 0.00 0.03 0.00 91 1010.5
20180119220541 52 136 5.0 5.0 0.00 0.03 0.00 91 1010.6
20180119220043 52 148 4.0 5.0 0.00 0.03 0.00 92 1010.7
20180119215539 52 128 0.0 5.0 0.00 0.03 0.00 92 1010.7
20180119215039 52 140 4.0 7.0 0.00 0.03 0.00 92 1010.7
20180119214539 52 128 4.0 8.0 0.00 0.03 0.00 92 1010.6
20180119214044 52 142 5.0 7.0 0.00 0.03 0.00 92 1010.6
20180119213539 52 139 2.0 7.0 0.00 0.03 0.00 92 1010.6
20180119213040 52 157 3.0 5.0 0.00 0.03 0.00 92 1010.6
20180119212539 52 150 3.0 7.0 0.00 0.03 0.00 92 1010.6
20180119212040 52 134 4.0 8.0 0.00 0.03 0.00 92 1010.7
20180119211540 52 147 4.0 6.0 0.00 0.03 0.00 92 1010.8
20180119211039 52 142 3.0 7.0 0.00 0.03 0.00 92 1010.9
20180119210539 52 159 4.0 8.0 0.00 0.03 0.00 92 1010.9
20180119210039 52 143 4.0 6.0 0.00 0.03 0.00 92 1010.9
20180119205539 52 135 1.0 8.0 0.00 0.03 0.00 92 1011.0
20180119205044 52 153 0.0 8.0 0.00 0.03 0.00 92 1011.0
20180119204541 52 148 5.0 9.0 0.00 0.03 0.00 92 1011.1
20180119204051 52 114 8.0 9.0 0.00 0.03 0.00 92 1011.0
20180119203039 52 142 4.0 8.0 0.00 0.03 0.00 92 1011.1
20180119202539 52 137 4.0 7.0 0.00 0.03 0.00 92 1011.2
20180119202039 52 127 5.0 8.0 0.00 0.03 0.00 92 1011.1
20180119201542 52 152 3.0 7.0 0.00 0.03 0.00 92 1011.1
20180119201052 52 150 4.0 6.0 0.00 0.03 0.00 92 1011.2
20180119200539 52 151 4.0 7.0 0.00 0.03 0.00 92 1011.2
20180119200044 52 125 4.0 9.0 0.00 0.03 0.00 92 1011.2
20180119195544 52 123 4.0 7.0 0.00 0.03 0.00 92 1011.0
20180119195040 52 136 8.0 9.0 0.00 0.03 0.00 92 1011.0
20180119194039 52 150 5.0 7.0 0.00 0.03 0.00 92 1010.9
20180119193041 52 159 0.0 7.0 0.00 0.03 0.00 92 1010.8
20180119192539 52 147 5.0 9.0 0.00 0.03 0.00 92 1010.8
20180119192042 52 140 5.0 10.0 0.00 0.03 0.00 92 1010.9
20180119191542 52 126 3.0 8.0 0.00 0.03 0.00 92 1010.9
20180119191042 52 138 4.0 8.0 0.00 0.03 0.00 92 1011.0
20180119190547 52 147 1.0 10.0 0.00 0.03 0.00 92 1011.1
20180119190041 52 128 3.0 5.0 0.00 0.03 0.00 92 1011.1
20180119185539 52 159 4.0 9.0 0.00 0.03 0.00 92 1011.1
20180119185038 52 142 3.0 9.0 0.00 0.03 0.00 92 1011.2
20180119184539 52 138 7.0 10.0 0.00 0.03 0.00 92 1011.3
20180119184040 52 108 8.0 11.0 0.00 0.03 0.00 92 1011.2
20180119183544 52 109 9.0 11.0 0.00 0.03 0.00 92 1011.1
20180119183038 52 113 8.0 9.0 0.00 0.03 0.00 92 1011.2
20180119182539 52 115 7.0 9.0 0.00 0.03 0.00 92 1011.3
20180119182043 52 126 8.0 9.0 0.00 0.03 0.00 92 1011.4
20180119181548 52 117 2.0 11.0 0.00 0.03 0.00 92 1011.4
20180119181040 52 154 7.0 10.0 0.00 0.03 0.00 92 1011.3
20180119180538 52 144 5.0 10.0 0.00 0.03 0.00 92 1011.1
20180119180045 52 170 7.0 11.0 0.00 0.03 0.00 92 1011.1
20180119175542 52 149 5.0 6.0 0.00 0.03 0.00 92 1011.1
20180119175038 52 149 0.0 9.0 0.00 0.03 0.00 92 1011.1
20180119174539 52 145 6.0 11.0 0.00 0.03 0.00 92 1011.0
20180119174038 52 130 8.0 11.0 0.00 0.03 0.00 92 1011.0
20180119173538 52 146 6.0 11.0 0.00 0.03 0.00 92 1011.2
20180119173038 52 113 6.0 10.0 0.00 0.03 0.00 92 1011.3
20180119172538 52 125 5.0 10.0 0.00 0.03 0.00 92 1011.3
20180119172039 52 122 8.0 9.0 0.00 0.03 0.00 92 1011.2
20180119171538 52 140 4.0 8.0 0.00 0.03 0.00 92 1011.2
20180119171038 52 143 8.0 8.0 0.00 0.03 0.00 92 1011.3
20180119170538 52 144 5.0 8.0 0.00 0.03 0.00 92 1011.3
20180119170038 52 139 4.0 6.0 0.00 0.03 0.00 92 1011.2
20180119165543 52 118 4.0 8.0 0.00 0.03 0.00 92 1011.2
20180119165038 52 136 4.0 8.0 0.00 0.03 0.00 92 1011.1
20180119164538 52 115 1.0 7.0 0.00 0.03 0.00 92 1011.1
20180119164039 52 104 4.0 8.0 0.00 0.03 0.00 92 1011.3
20180119163538 52 118 4.0 8.0 0.00 0.03 0.00 92 1011.4
20180119163038 52 103 1.0 7.0 0.00 0.03 0.00 92 1011.4
20180119162539 52 132 5.0 7.0 0.00 0.03 0.00 92 1011.4
20180119162038 52 130 7.0 8.0 0.00 0.03 0.00 92 1011.3
20180119161543 52 140 4.0 8.0 0.00 0.03 0.00 92 1011.4
20180119161038 53 128 3.0 7.0 0.00 0.03 0.00 92 1011.5
20180119160544 53 138 5.0 5.0 0.00 0.03 0.00 92 1011.4
20180119160039 53 150 1.0 8.0 0.00 0.03 0.00 92 1011.5
20180119155538 53 119 3.0 8.0 0.00 0.03 0.00 91 1011.5
20180119155038 53 143 6.0 10.0 0.00 0.03 0.00 91 1011.5
20180119154539 53 128 3.0 5.0 0.00 0.03 0.00 91 1011.6
20180119154038 53 130 5.0 7.0 0.00 0.03 0.00 91 1011.5
20180119153540 53 152 4.0 7.0 0.00 0.03 0.00 91 1011.5
20180119153038 53 152 3.0 6.0 0.00 0.03 0.00 91 1011.7
20180119152538 53 145 3.0 8.0 0.00 0.03 0.00 91 1011.7
20180119152038 53 146 5.0 8.0 0.00 0.03 0.00 90 1011.6
20180119151548 54 136 5.0 9.0 0.00 0.03 0.00 90 1011.6
20180119151038 54 140 7.0 8.0 0.00 0.03 0.00 89 1011.7
20180119150538 54 129 5.0 8.0 0.00 0.03 0.00 89 1011.7
20180119150038 54 152 5.0 10.0 0.00 0.03 0.00 89 1011.7
20180119145541 54 164 5.0 9.0 0.00 0.03 0.00 89 1011.7